Simultaneous Nadir Overpasses (SNOs) Predictions

Prediction of SNOs over PacNW region [( 10.00, 139.50) to ( 22.70, 165.60)] between AQUA and NPP Satellites:

Table of predicted SNOs over PacNW region for the next 30.0 days since TLE Epoch: 10/27/2017
Index Date (AQUA) Time (AQUA) AQUA Lat,Lon Date (NPP) Time (NPP) NPP Lat,Lon Distance(km) Time Diff (sec)
1 10/31/2017 15:09:43 22.59, 159.83 10/31/2017 15:11:37 23.20, 157.16 282.41 114
2 11/03/2017 03:31:34 22.70, 147.51 11/03/2017 03:28:04 23.34, 145.52 215.04 210
3 11/08/2017 15:59:08 22.62, 147.49 11/08/2017 16:02:19 23.28, 144.48 316.77 191
4 11/16/2017 15:09:40 22.59, 159.86 11/16/2017 15:11:34 23.22, 157.14 286.75 114
5 11/19/2017 03:31:29 22.69, 147.54 11/19/2017 03:27:59 23.24, 145.53 214.45 210




NCC Satellite Simultaneous Nadir Overpasses (SNOs) Prediction Service
